Location: Hartha
(51.1030°N, 12.9600°E)
Time: 16:22:17
(UTC+01:00)

Daily predictions for brighter satellites

Satellite Brightness Start Highest point End
(mag) Time Altitude Azimuth Time Altitude Azimuth Time Altitude Azimuth
BREEZE-M DEB (TANK) 3.9 16:32:45 10° WNW 16:36:42 88° SSW 16:53:35 10° ESE
Cosmos 2360 4.5 16:32:50 10° S 16:38:23 56° ESE 16:43:57 10° NE
Cosmos 1703 Rocket 3.6 16:37:05 10° S 16:41:22 63° E 16:45:43 10° NNE
SL-16 R/B 3.5 16:40:14 10° SSE 16:44:30 22° ESE 16:48:48 10° NE
Cosmos 540 Rocket 3.6 16:39:56 10° NNW 16:45:01 54° ENE 16:50:01 10° SE
Meteor 1-10 Rocket 4.5 16:41:30 10° SSW 16:47:13 80° WNW 16:53:05 10° N
Cosmos 1536 2.8 16:44:13 10° N 16:48:16 71° ENE 16:52:20 10° SSE
Cosmos 1656 4.3 16:44:44 10° SW 16:50:15 56° NW 16:55:52 10° NNE
Cosmos 1812 3.1 16:48:19 10° SSE 16:51:58 43° E 16:55:39 10° NNE
Cosmos 1814 Rocket 4.2 16:49:19 10° NNW 16:54:40 80° WSW 16:59:54 10° SSE
Okean 1-7 2.9 16:53:44 10° S 16:57:57 71° E 17:02:13 10° NNE
Aureole 2 Rocket 2.0 16:56:28 10° SSW 16:59:08 67° WNW 17:01:52 10° NNE
CZ-4 R/B 2.5 16:56:02 10° ESE 16:59:27 24° ENE 17:02:52 10° N
Cosmos 2098 Rocket 3.2 16:56:06 10° SSW 17:00:20 63° W 17:03:46 10° N
Cosmos 1340 Rocket 3.0 16:56:36 10° SSW 17:00:34 78° WNW 17:04:37 10° N
ALOS 2.4 16:56:45 10° SSE 17:01:17 54° ENE 17:05:51 10° N
YAOGAN 1 3.8 16:59:18 10° ESE 17:02:33 21° ENE 17:05:50 10° NNE
SJ-7 4.4 17:00:24 10° SSE 17:04:32 78° ENE 17:08:46 10° NNW
Cosmos 1484 Rocket 3.8 17:08:53 10° S 17:12:29 47° W 17:16:06 10° NNW
Okean 1 Rocket 4.0 17:09:22 10° N 17:13:05 25° ENE 17:16:44 10° SE
Cosmos 1844 Rocket 3.5 17:10:37 10° NNW 17:15:34 30° NE 17:20:31 10° ESE
Ariane Rocket 3.7 17:11:18 10° ESE 17:15:38 30° ENE 17:19:59 10° N
CORIOLIS 4.2 17:10:57 10° SSE 17:16:20 65° ENE 17:21:43 10° N
FENGYUN 3A 3.6 17:11:26 10° SSE 17:16:49 74° ENE 17:22:12 10° NNW
Cosmos 2084 3.9 17:13:19 10° NW 17:17:05 35° NNE 17:20:00 14° E
Cosmos 2278 4.5 17:12:43 10° SW 17:18:14 50° NW 17:23:44 10° NNE
Cosmos 2341 Rocket 4.1 17:14:51 10° S 17:21:16 90° NNW 17:27:42 10° N
Lacrosse 5 2.5 17:16:43 10° W 17:21:36 44° N 17:25:13 17° ENE
Cosmos 2263 Rocket 2.3 17:18:03 10° NNW 17:23:48 84° WSW 17:29:29 10° SSE
ISS -1.6 17:22:13 10° W 17:25:01 26° SSW 17:27:47 10° SSE
Cosmos 836 Rocket 4.5 17:22:58 10° NNW 17:28:19 72° ENE 17:33:37 10° SSE
SL-8 Rocket 4.0 17:25:06 10° S 17:31:24 77° E 17:37:45 10° NNE
Meteor 1-27 Rocket 4.5 17:27:39 10° SSW 17:33:30 59° WNW 17:39:23 10° N
Cosmos 1666 2.7 17:30:55 10° N 17:34:46 62° ENE 17:38:37 10° SSE
Cosmos 2322 Rocket 2.5 17:29:27 10° S 17:34:52 47° ESE 17:38:59 17° NE
Cosmos 1300 Rocket 3.5 17:34:36 10° N 17:39:05 76° E 17:43:29 10° SSE
Meteor 1-12 Rocket 4.4 17:34:56 10° N 17:40:27 48° ENE 17:45:54 10° SE
Cosmos 2278 Rocket 3.5 17:36:54 10° NNW 17:41:01 20° NNE 17:41:59 19° NE
AQUARIUS 4.4 17:37:29 10° S 17:41:58 72° WSW 17:46:30 10° NNW
Cosmos 2151 Rocket 3.7 17:38:31 10° NNW 17:43:05 84° W 17:47:35 10° S
CZ-4C R/B 3.6 17:37:36 10° NW 17:43:07 30° NNE 17:46:42 20° NE
Cosmos 1743 2.7 17:39:33 10° N 17:43:23 54° ENE 17:47:08 10° SSE
Genesis I 3.2 17:39:30 10° SW 17:43:32 89° SSE 17:45:54 25° NE
USA 215 3.4 17:40:05 19° E 17:44:48 58° N 17:51:11 10° WNW
Meteor 1-18 Rocket 4.2 17:40:22 10° S 17:45:47 57° E 17:51:14 10° NNE
Cosmos 1697 Rocket 3.9 17:43:03 10° WSW 17:48:14 37° NW 17:53:28 10° NNE
EO 1 Delta rocket 4.4 17:44:07 10° N 17:48:39 59° WNW 17:53:30 10° SSW
Cosmos 2360 Rocket 3.0 17:45:41 10° SSE 17:50:32 31° ESE 17:52:11 26° ENE
Cosmos 1354 Rocket 4.3 17:47:08 10° S 17:52:04 44° ESE 17:54:42 25° NE
Cosmos 864 Rocket 4.4 17:46:52 10° S 17:53:02 82° E 17:59:14 10° NNE
Cosmos 1980 Rocket 2.9 17:48:37 10° SW 17:54:03 50° NW 17:59:07 12° NNE
CSL-04 Rocket 3.6 17:51:02 10° SSE 17:56:22 87° ENE 18:01:49 10° NNW
H-2A R/B 2.7 17:52:42 10° SSE 17:56:33 61° ENE 18:00:28 10° N
Cosmos 1674 Rocket 3.6 17:52:25 10° S 17:56:45 60° E 17:59:59 18° NNE
ERBS 3.4 17:54:41 10° SSW 17:57:35 27° SE 17:57:36 27° SE
Cosmos 2366 rocket 3.9 17:51:35 10° S 17:57:44 90° WSW 18:03:57 10° N
USA 116 4.2 17:56:59 34° ENE 17:58:05 42° E 18:02:18 10° S
Cosmos 1821 Rocket 4.4 17:53:27 10° SSE 17:59:19 40° E 18:05:13 10° NNE
Cosmos 1975 2.7 17:57:19 10° N 18:01:27 87° E 18:05:30 10° S
Cosmos 1844 3.9 18:01:08 10° NNW 18:06:36 47° NE 18:09:18 28° ESE
ATLAS CENTAUR R/B 2.7 18:05:05 10° WNW 18:05:42 19° NW 18:05:42 19° NW
CSL-04 Debris 4.2 18:02:35 10° SSE 18:08:00 80° WSW 18:13:27 10° NNW
Cosmos 1356 Rocket 3.7 18:04:04 10° SSW 18:08:09 65° WNW 18:11:53 13° N
SMAP 4.5 18:03:50 10° SSW 18:08:12 40° W 18:12:37 10° NNW
Cosmos 2218 Rocket 4.2 18:02:42 10° SSW 18:08:56 72° WNW 18:15:17 10° N
CZ-4 R/B 4.4 18:06:44 10° SSE 18:10:51 87° WSW 18:15:02 10° NNW
Cosmos 1503 Rocket 3.9 18:05:47 10° S 18:10:53 65° ESE 18:13:20 31° NE
NOSS 2-1 (C) 4.5 18:07:40 10° NW 18:12:41 52° NE 18:15:22 32° E
NOSS 2-1 (D) 4.5 18:09:36 10° NW 18:14:39 53° NE 18:17:20 33° E
Geosat 4.4 18:11:42 19° NNE 18:15:20 61° NW 18:20:16 10° SW
Cosmos 783 Rocket 4.4 18:10:42 10° NNW 18:16:02 87° ENE 18:21:18 10° SSE
Envisat 3.1 18:12:10 10° SE 18:17:03 50° ENE 18:21:58 10° N
Meteor 2-17 Rocket 4.4 18:11:53 10° S 18:17:58 67° E 18:24:05 10° NNE
Cosmos 2322 4.3 18:14:34 10° S 18:19:32 35° ESE 18:19:32 35° ESE
Cosmos 2123 Rocket 4.1 18:17:08 10° N 18:23:19 51° ENE 18:29:28 10° SSE
Meteor 1-19 Rocket 4.1 18:17:57 10° S 18:23:23 66° E 18:26:48 24° NNE
COSMO-SKYMED 1 2.4 18:23:11 43° NNE 18:24:34 76° ESE 18:28:54 10° S
NOAA 12 4.4 18:21:04 10° S 18:26:19 68° WSW 18:31:35 10° NNW
SL-16 R/B 2.3 18:22:23 10° SW 18:28:03 74° WNW 18:31:16 27° NNE
Meteor 2-9 Rocket 4.2 18:23:38 10° NNW 18:29:28 89° ENE 18:35:06 10° S
Cosmos 2237 4.4 18:24:13 10° S 18:29:35 46° ESE 18:29:53 45° E
Okean 1 4.1 18:28:13 10° SSW 18:32:10 52° WNW 18:34:41 21° N
CZ-4 R/B 2.7 18:30:14 10° S 18:34:16 44° W 18:38:19 10° NNW
Meteor 1-13 Rocket 4.1 18:30:46 10° S 18:36:09 57° E 18:36:47 54° ENE
YAOGAN 1 3.2 18:34:05 10° S 18:38:19 55° W 18:42:36 10° NNW
Lacrosse 5 rocket 3.1 18:45:17 10° SSW 18:47:50 26° S 18:47:50 26° S
NOSS 2-1 (E) 4.3 18:45:43 10° NW 18:51:08 74° NE 18:52:31 56° ESE
Okean 1 Rocket 4.3 18:46:59 10° NNW 18:51:10 41° W 18:55:17 10° SSW
Ariane Rocket 3.9 18:49:30 10° S 18:54:24 49° W 18:59:20 10° NNW
Cosmos 2084 4.2 18:52:51 10° NW 18:56:37 45° WSW 18:56:37 45° WSW
Cosmos 1378 Rocket 4.2 18:54:25 10° SSW 18:58:41 52° WNW 18:59:32 44° NW
Cosmos 1932 4.3 18:53:19 10° SSW 18:59:29 68° SE 18:59:41 68° ESE
Cosmos 1844 Rocket 2.9 18:54:19 10° NNW 18:59:58 68° WSW 19:03:00 28° S
Cosmos 1934 Rocket 3.8 18:54:00 10° S 19:00:12 73° E 19:00:56 65° NE
Cosmos 1607 4.1 18:54:07 10° SW 19:00:31 69° NW 19:02:20 47° NNE
Lacrosse 5 2.5 19:00:21 10° WNW 19:04:25 45° NNW 19:04:25 45° NNW
Meteor 1-15 Rocket 4.3 18:59:34 10° N 19:04:41 67° NNE 19:04:41 67° NNE
Cosmos 2219 Rocket 4.2 19:00:37 10° S 19:01:36 15° SSE 19:01:36 15° SSE
COSMOS 2428 4.2 19:02:48 10° S 19:05:02 23° S 19:05:02 23° S
Meteor 2-4 Rocket 3.7 19:04:10 10° SSW 19:09:51 80° WNW 19:10:34 67° NNW
Cosmos 968 Rocket 3.8 19:05:10 10° SW 19:10:24 64° WNW 19:10:56 60° NNW
Cosmos 1943 Rocket 4.5 19:08:37 10° N 19:08:59 11° N 19:08:59 11° N
SPOT 3 Rocket 4.4 19:13:21 41° NNW 19:13:21 41° NNW 19:16:40 10° NNW
Cosmos 773 Rocket 4.3 19:12:08 10° NNW 19:17:22 63° WSW 19:17:40 62° SW
Cosmos 2369 Rocket 4.5 19:15:43 10° N 19:16:38 12° N 19:16:38 12° N
Cosmos 2322 Rocket 3.3 19:13:44 10° WSW 19:19:04 39° NW 19:20:49 31° N
Cosmos 2278 Rocket 3.2 19:20:30 10° NNW 19:23:51 36° NNW 19:23:51 36° NNW
USA 215 3.1 19:27:27 83° SSE 19:27:40 85° SSW 19:34:14 10° WNW
Cosmos 2333 Rocket 4.5 19:27:28 10° S 19:27:58 13° S 19:27:58 13° S
CZ-4C R/B 3.2 19:26:27 10° NW 19:31:54 50° N 19:31:54 50° N
Cosmos 2360 Rocket 2.7 19:28:44 10° SW 19:34:00 55° WNW 19:34:00 55° WNW
Cosmos 1980 Rocket 4.4 19:36:04 10° WNW 19:39:27 16° NNW 19:40:53 15° N
SL-16 R/B 4.3 20:08:58 10° W 20:13:09 21° NW 20:13:09 21° NW
